Simultaneous Nadir Overpasses (SNOs) Predictions

Prediction of SNOs between GOES-15 and METOP-B Satellite Orbit:

Table of predicted SNOs for the next 14.0 days since TLE Epoch: 2/26/2022
Index Date Time (GOES-15) GOES-15 Lat,Lon METOP-B Lat,Lon Distance(km) Time Diff (sec)
1 02/26/2022 06:13:25 -0.01,-127.60 -0.74,-130.99 385.32 80
2 02/27/2022 05:55:25 -0.01,-127.56 0.33,-125.98 179.39 80
3 02/28/2022 18:11:36 0.01,-127.54 0.69,-130.55 342.35 80
4 03/01/2022 17:53:37 0.02,-127.50 -0.44,-125.56 222.38 80
5 03/03/2022 06:09:56 -0.01,-127.39 -0.61,-130.15 313.51 80
6 03/04/2022 05:51:55 -0.02,-127.35 0.46,-125.14 251.28 80
7 03/05/2022 18:08:07 0.02,-127.34 0.56,-129.71 270.51 80
8 03/06/2022 17:50:07 0.02,-127.29 -0.57,-124.72 294.04 80
9 03/08/2022 06:06:27 -0.01,-127.18 -0.47,-129.31 242.46 80
10 03/09/2022 05:48:26 -0.02,-127.13 0.60,-124.31 321.73 80
11 03/10/2022 18:04:37 0.01,-127.11 0.42,-128.87 201.21 80
12 03/11/2022 17:46:38 0.01,-127.06 -0.72,-123.88 362.62 80
